When you browse on this site, cookies collect data to enhance your experience and personalize the content and advertising you see.
Visit our Privacy Policy to learn more. By continuing to use the site, you agree to this use of cookies and data.
  • en Belgique
  • Liste des pays
  • À 7 jours
  • Température de l'eau
  • Carte satellitaire
  • Carte météo
  • Widgets météo
  • user-avatar
    Se connecter

    Météo par heure à Baden-Baden

    Ce jour, 24 Juillet, Mercredi

    Heure Température Précipitation Vent Pression Humidité
    00:00 +23°C° 0 mm 2 m/s 732 mmHg 77%
    01:00 +22°C° 0 mm 1 m/s 731 mmHg 78%
    02:00 +22°C° 0 mm 1 m/s 731 mmHg 78%
    03:00 +21°C° 0 mm 1 m/s 731 mmHg 78%
    04:00 +21°C° 0 mm 1 m/s 731 mmHg 79%
    05:00 +22°C° 0 mm 1 m/s 731 mmHg 76%
    06:00 +23°C° 0 mm 1 m/s 731 mmHg 73%
    07:00 +24°C° 0 mm 1 m/s 731 mmHg 70%
    08:00 +26°C° 0 mm 1 m/s 731 mmHg 64%
    09:00 +28°C° 0 mm 1 m/s 732 mmHg 58%
    10:00 +30°C° 0 mm 1 m/s 732 mmHg 52%
    11:00 +32°C° 0 mm 1 m/s 732 mmHg 49%
    12:00 +33°C° 0 mm 1 m/s 731 mmHg 45%
    13:00 +34°C° 0 mm 1 m/s 731 mmHg 41%
    14:00 +35°C° 0 mm 1 m/s 731 mmHg 40%
    15:00 +35°C° 0 mm 1 m/s 731 mmHg 38%
    16:00 +35°C° 0 mm 1 m/s 731 mmHg 37%
    17:00 +33°C° 0 mm 1 m/s 731 mmHg 43%
    18:00 +32°C° 0 mm 1 m/s 730 mmHg 50%
    19:00 +29°C° 0 mm 0 m/s 730 mmHg 56%
    20:00 +29°C° 0 mm 1 m/s 731 mmHg 59%
    21:00 +27°C° 0 mm 1 m/s 731 mmHg 61%
    22:00 +26°C° 0 mm 1 m/s 731 mmHg 64%
    23:00 +25°C° 0 mm 1 m/s 731 mmHg 65%

    Demain, 25 Juillet, Jeudi

    Heure Température Précipitation Vent Pression Humidité
    00:00 +25°C° 0 mm 1 m/s 731 mmHg 67%
    01:00 +24°C° 0 mm 1 m/s 731 mmHg 68%
    02:00 +24°C° 0 mm 1 m/s 731 mmHg 70%
    03:00 +24°C° 0 mm 1 m/s 731 mmHg 72%
    04:00 +23°C° 0 mm 1 m/s 731 mmHg 73%
    05:00 +24°C° 0 mm 1 m/s 731 mmHg 72%
    06:00 +25°C° 0 mm 1 m/s 731 mmHg 70%
    07:00 +26°C° 0 mm 1 m/s 731 mmHg 69%
    08:00 +28°C° 0 mm 1 m/s 731 mmHg 62%
    09:00 +30°C° 0 mm 1 m/s 732 mmHg 55%
    10:00 +32°C° 0 mm 2 m/s 732 mmHg 49%
    11:00 +34°C° 0 mm 2 m/s 731 mmHg 44%
    12:00 +35°C° 0 mm 2 m/s 731 mmHg 40%
    13:00 +36°C° 0 mm 3 m/s 731 mmHg 36%
    14:00 +36°C° 0 mm 3 m/s 731 mmHg 36%
    15:00 +36°C° 0 mm 3 m/s 730 mmHg 36%
    16:00 +36°C° 0 mm 3 m/s 730 mmHg 35%
    17:00 +35°C° 0 mm 3 m/s 730 mmHg 43%
    18:00 +33°C° 0 mm 3 m/s 730 mmHg 50%
    19:00 +30°C° 0 mm 3 m/s 729 mmHg 57%
    20:00 +28°C° 0 mm 2 m/s 730 mmHg 60%
    21:00 +27°C° 0 mm 2 m/s 730 mmHg 64%
    22:00 +25°C° 0 mm 2 m/s 730 mmHg 68%
    23:00 +25°C° 0 mm 2 m/s 729 mmHg 69%

    Après-demain, 26 Juillet, Vendredi

    Heure Température Précipitation Vent Pression Humidité
    00:00 +24°C° 0 mm 2 m/s 729 mmHg 70%
    01:00 +24°C° 0 mm 2 m/s 729 mmHg 70%
    02:00 +23°C° 0 mm 2 m/s 729 mmHg 71%
    03:00 +23°C° 0 mm 2 m/s 728 mmHg 71%
    04:00 +21°C° 0 mm 2 m/s 728 mmHg 72%
    05:00 +23°C° 0 mm 2 m/s 728 mmHg 69%
    06:00 +24°C° 0 mm 1 m/s 728 mmHg 67%
    07:00 +25°C° 0 mm 1 m/s 728 mmHg 64%
    08:00 +27°C° 0 mm 1 m/s 728 mmHg 57%
    09:00 +29°C° 0 mm 1 m/s 728 mmHg 50%
    10:00 +32°C° 0 mm 1 m/s 728 mmHg 43%
    11:00 +32°C° 0 mm 2 m/s 728 mmHg 41%
    12:00 +34°C° 0 mm 2 m/s 728 mmHg 38%
    13:00 +35°C° 0 mm 2 m/s 727 mmHg 35%
    14:00 +35°C° 0 mm 3 m/s 727 mmHg 36%
    15:00 +35°C° 0 mm 3 m/s 727 mmHg 37%
    16:00 +35°C° 0 mm 3 m/s 726 mmHg 38%
    17:00 +33°C° 0 mm 3 m/s 726 mmHg 45%
    18:00 +31°C° 0 mm 2 m/s 726 mmHg 52%
    19:00 +29°C° 0 mm 2 m/s 725 mmHg 59%
    20:00 +28°C° 0 mm 2 m/s 725 mmHg 61%
    21:00 +26°C° 0 mm 2 m/s 725 mmHg 63%
    22:00 +25°C° 0 mm 2 m/s 724 mmHg 65%
    23:00 +24°C° 0 mm 2 m/s 724 mmHg 67%

    27 Juillet, Samedi

    Heure Température Précipitation Vent Pression Humidité
    00:00 +23°C° 0 mm 2 m/s 724 mmHg 68%
    01:00 +23°C° 0 mm 1 m/s 724 mmHg 70%
    02:00 +22°C° 0 mm 1 m/s 724 mmHg 71%
    03:00 +22°C° 0 mm 1 m/s 723 mmHg 73%
    04:00 +21°C° 0 mm 1 m/s 723 mmHg 75%
    05:00 +22°C° 0 mm 1 m/s 723 mmHg 75%
    06:00 +23°C° 0 mm 1 m/s 723 mmHg 74%
    07:00 +23°C° 0 mm 1 m/s 723 mmHg 73%
    08:00 +25°C° 0 mm 1 m/s 723 mmHg 68%
    09:00 +27°C° 0 mm 1 m/s 723 mmHg 62%
    10:00 +28°C° 0 mm 1 m/s 723 mmHg 57%
    11:00 +29°C° 0.1 mm 1 m/s 723 mmHg 54%
    12:00 +30°C° 0.1 mm 2 m/s 723 mmHg 51%
    13:00 +31°C° 0.1 mm 2 m/s 722 mmHg 49%
    14:00 +30°C° 0.3 mm 2 m/s 722 mmHg 50%
    15:00 +30°C° 0.3 mm 2 m/s 722 mmHg 51%
    16:00 +30°C° 0.3 mm 3 m/s 721 mmHg 53%
    17:00 +28°C° 0.4 mm 3 m/s 721 mmHg 59%
    18:00 +27°C° 0.4 mm 2 m/s 721 mmHg 65%
    19:00 +25°C° 0.4 mm 2 m/s 721 mmHg 72%
    20:00 +24°C° 0.8 mm 2 m/s 721 mmHg 76%
    21:00 +23°C° 0.8 mm 1 m/s 721 mmHg 80%
    22:00 +21°C° 0.8 mm 1 m/s 721 mmHg 84%
    23:00 +21°C° 0.2 mm 1 m/s 722 mmHg 87%

    28 Juillet, Dimanche

    Heure Température Précipitation Vent Pression Humidité
    00:00 +20°C° 0.2 mm 1 m/s 722 mmHg 89%
    01:00 +19°C° 0.2 mm 2 m/s 722 mmHg 91%
    02:00 +18°C° 0.2 mm 2 m/s 722 mmHg 92%
    03:00 +18°C° 0.2 mm 2 m/s 722 mmHg 93%
    04:00 +18°C° 0.2 mm 2 m/s 722 mmHg 94%
    05:00 +18°C° 0.1 mm 2 m/s 722 mmHg 93%
    06:00 +18°C° 0.1 mm 2 m/s 722 mmHg 92%
    07:00 +18°C° 0.1 mm 2 m/s 723 mmHg 91%
    08:00 +19°C° 0.1 mm 2 m/s 723 mmHg 89%
    09:00 +19°C° 0.1 mm 2 m/s 724 mmHg 87%
    10:00 +20°C° 0.1 mm 2 m/s 724 mmHg 85%
    11:00 +20°C° 0.1 mm 3 m/s 724 mmHg 85%
    12:00 +19°C° 0.1 mm 3 m/s 724 mmHg 84%
    13:00 +19°C° 0.1 mm 3 m/s 725 mmHg 83%
    14:00 +20°C° 0 mm 3 m/s 725 mmHg 81%
    15:00 +20°C° 0 mm 3 m/s 725 mmHg 79%
    16:00 +20°C° 0 mm 3 m/s 725 mmHg 77%
    17:00 +20°C° 0 mm 3 m/s 725 mmHg 78%
    18:00 +19°C° 0 mm 3 m/s 726 mmHg 80%
    19:00 +19°C° 0 mm 3 m/s 726 mmHg 81%
    20:00 +18°C° 0 mm 3 m/s 726 mmHg 84%
    21:00 +17°C° 0 mm 2 m/s 727 mmHg 88%
    22:00 +16°C° 0 mm 2 m/s 727 mmHg 91%
    23:00 +16°C° 0 mm 2 m/s 727 mmHg 90%

    29 Juillet, Lundi

    Heure Température Précipitation Vent Pression Humidité
    00:00 +16°C° 0 mm 2 m/s 728 mmHg 89%
    01:00 +16°C° 0 mm 2 m/s 728 mmHg 88%
    02:00 +16°C° 0 mm 2 m/s 728 mmHg 90%
    03:00 +15°C° 0 mm 1 m/s 728 mmHg 91%
    04:00 +15°C° 0 mm 1 m/s 728 mmHg 93%
    05:00 +16°C° 0 mm 1 m/s 728 mmHg 90%
    06:00 +18°C° 0 mm 1 m/s 728 mmHg 87%
    07:00 +18°C° 0 mm 1 m/s 729 mmHg 84%
    08:00 +20°C° 0 mm 1 m/s 729 mmHg 80%
    09:00 +21°C° 0 mm 1 m/s 729 mmHg 76%
    10:00 +23°C° 0 mm 1 m/s 729 mmHg 72%
    11:00 +24°C° 0 mm 1 m/s 729 mmHg 68%
    12:00 +25°C° 0 mm 1 m/s 729 mmHg 65%
    13:00 +26°C° 0 mm 2 m/s 729 mmHg 61%
    14:00 +26°C° 0 mm 2 m/s 729 mmHg 58%
    15:00 +27°C° 0 mm 2 m/s 729 mmHg 55%
    16:00 +28°C° 0 mm 2 m/s 729 mmHg 53%
    17:00 +27°C° 0 mm 1 m/s 729 mmHg 58%
    18:00 +26°C° 0 mm 1 m/s 729 mmHg 63%
    19:00 +26°C° 0 mm 1 m/s 729 mmHg 68%
    20:00 +24°C° 0 mm 1 m/s 729 mmHg 72%
    21:00 +23°C° 0 mm 1 m/s 729 mmHg 77%
    22:00 +21°C° 0 mm 1 m/s 729 mmHg 81%
    23:00 +21°C° 0 mm 1 m/s 729 mmHg 81%
    Voir plus